Simultaneous Nadir Overpasses (SNOs) Predictions

Prediction of SNOs between NOAA-21 and METOP-C Satellite Orbit:

Table of predicted SNOs for the next 14.0 days since TLE Epoch: 5/25/2024
Index Date (NOAA-21) Time (NOAA-21) Lat,Lon (NOAA-21) SZA (NOAA-21 ) Date (METOP-C) Time (METOP-C) Lat,Lon (METOP-C) SZA (METOP-C ) Distance(km) Time Diff (sec)
1 06/02/2024 21:46:17 -73.48, 23.46 128.68 06/02/2024 21:47:23 -73.42, 26.49 128.90 96.27 66
2 06/02/2024 22:36:59 73.27,-168.76 51.09 06/02/2024 22:38:07 73.21,-166.64 50.91 68.62 68
3 06/02/2024 23:27:41 -73.18, -1.24 129.02 06/02/2024 23:28:51 -73.10, 0.44 129.20 55.09 70
4 06/03/2024 00:18:23 72.97, 166.52 50.75 06/03/2024 00:19:35 72.89, 167.33 50.61 27.90 72
5 06/03/2024 01:09:04 -72.88, -25.96 129.36 06/03/2024 01:10:17 -72.83, -25.48 129.45 17.06 73
6 06/03/2024 01:59:47 72.72, 141.68 50.46 06/03/2024 02:00:59 72.72, 141.63 50.45 1.72 72
7 06/03/2024 02:50:31 -72.73, -51.02 129.54 06/03/2024 02:51:41 -72.71, -51.07 129.57 2.86 70
8 06/03/2024 03:41:17 72.72, 116.31 50.45 06/03/2024 03:42:21 72.70, 116.25 50.42 2.92 64
9 06/03/2024 04:32:01 -72.73, -76.39 129.54 06/03/2024 04:33:02 -72.74, -76.34 129.55 2.08 61
10 06/03/2024 05:22:47 72.72, 90.94 50.44 06/03/2024 05:23:42 72.73, 90.98 50.44 1.90 55
11 06/03/2024 06:13:31 -72.73,-101.77 129.55 06/03/2024 06:14:24 -72.72,-101.72 129.57 1.78 53
12 06/03/2024 07:04:17 72.72, 65.56 50.44 06/03/2024 07:05:04 72.71, 65.60 50.42 1.32 47
13 06/03/2024 07:55:01 -72.73,-127.14 129.56 06/03/2024 07:55:46 -72.70,-127.10 129.60 3.25 45
14 06/03/2024 08:45:47 72.72, 40.19 50.43 06/03/2024 08:46:26 72.69, 40.22 50.39 2.97 39
15 06/03/2024 09:36:30 -72.68,-152.41 129.63 06/03/2024 09:37:08 -72.68,-152.48 129.63 2.41 38
16 06/03/2024 10:27:16 72.67, 14.92 50.36 06/03/2024 10:27:48 72.67, 14.84 50.37 2.89 32
17 06/03/2024 11:18:00 -72.67,-177.78 129.64 06/03/2024 11:18:30 -72.66,-177.86 129.65 2.94 30
18 06/03/2024 12:08:46 72.66, -10.45 50.35 06/03/2024 12:09:10 72.65, -10.54 50.34 3.33 24
19 06/03/2024 12:59:30 -72.67, 156.84 129.64 06/03/2024 12:59:51 -72.69, 156.87 129.63 2.19 21
20 06/03/2024 13:50:16 72.66, -35.83 50.34 06/03/2024 13:50:31 72.68, -35.82 50.36 2.16 15
21 06/03/2024 14:41:00 -72.67, 131.47 129.65 06/03/2024 14:41:13 -72.67, 131.49 129.66 0.52 13
22 06/03/2024 15:31:46 72.66, -61.20 50.34 06/03/2024 15:31:53 72.66, -61.20 50.33 0.04 7
23 06/03/2024 16:22:30 -72.67, 106.10 129.66 06/03/2024 16:22:35 -72.65, 106.11 129.68 2.10 5
24 06/03/2024 17:13:16 72.66, -86.57 50.33 06/03/2024 17:13:15 72.64, -86.58 50.31 2.09 1
25 06/03/2024 18:03:59 -72.62, 80.83 129.73 06/03/2024 18:03:57 -72.63, 80.73 129.71 3.63 2
26 06/03/2024 18:54:46 72.66,-111.95 50.32 06/03/2024 18:54:36 72.68,-111.86 50.33 3.40 10
27 06/03/2024 19:45:30 -72.67, 55.35 129.68 06/03/2024 19:45:18 -72.67, 55.45 129.69 3.44 12
28 06/03/2024 20:36:16 72.66,-137.32 50.31 06/03/2024 20:35:58 72.66,-137.24 50.30 2.93 18
29 06/03/2024 21:26:59 -72.62, 30.08 129.74 06/03/2024 21:26:40 -72.65, 30.07 129.71 2.95 19
30 06/03/2024 22:17:45 72.61,-162.59 50.25 06/03/2024 22:17:20 72.64,-162.62 50.28 2.98 25
31 06/03/2024 23:08:29 -72.62, 4.71 129.75 06/03/2024 23:08:02 -72.63, 4.69 129.74 0.97 27
32 06/03/2024 23:59:15 72.61, 172.04 50.24 06/03/2024 23:58:42 72.62, 172.00 50.25 1.26 33
33 06/04/2024 00:49:59 -72.62, -20.67 129.76 06/04/2024 00:49:24 -72.61, -20.69 129.76 1.39 35
34 06/04/2024 01:40:45 72.61, 146.66 50.23 06/04/2024 01:40:04 72.60, 146.62 50.23 1.85 41
35 06/04/2024 02:31:29 -72.62, -46.04 129.77 06/04/2024 02:30:46 -72.59, -46.07 129.79 3.43 43
36 06/04/2024 03:22:15 72.61, 121.29 50.22 06/04/2024 03:21:25 72.63, 121.35 50.25 2.95 50
37 06/04/2024 04:12:59 -72.62, -71.41 129.78 06/04/2024 04:12:07 -72.62, -71.34 129.77 2.43 52
38 06/04/2024 05:03:45 72.61, 95.91 50.21 06/04/2024 05:02:47 72.61, 95.97 50.22 1.83 58
39 06/04/2024 05:54:29 -72.62, -96.79 129.79 06/04/2024 05:53:29 -72.60, -96.72 129.79 2.92 60
40 06/04/2024 06:45:15 72.61, 70.54 50.20 06/04/2024 06:44:09 72.59, 70.59 50.20 2.68 66
41 06/04/2024 07:35:58 -72.57,-122.06 129.85 06/04/2024 07:34:51 -72.58,-122.10 129.82 2.17 67
42 06/04/2024 08:26:44 72.56, 45.27 50.14 06/04/2024 08:25:31 72.57, 45.21 50.17 2.46 73
43 06/04/2024 09:17:28 -72.57,-147.43 129.86 06/04/2024 09:16:13 -72.56,-147.48 129.84 1.64 75
44 06/04/2024 10:08:09 72.30, 20.41 49.86 06/04/2024 10:06:57 72.34, 19.42 49.96 33.64 72
45 06/04/2024 10:58:52 -72.26,-172.20 130.20 06/04/2024 10:57:40 -72.29,-173.36 130.09 39.67 72
46 06/04/2024 11:49:33 71.99, -4.37 49.52 06/04/2024 11:48:25 72.02, -6.55 49.67 74.96 68
47 06/04/2024 12:40:16 -71.95, 163.02 130.53 06/04/2024 12:39:08 -71.96, 160.67 130.39 80.98 68



Historial Predications of SNOs between NOAA-21 and METOP-C
